Location: Kleine Wiske
(52.9454°N, 5.4478°E)
Time: 05:32:56
(UTC+00:00)

Daily predictions for brighter satellites

Satellite Brightness Start Highest point End
(mag) Time Altitude Azimuth Time Altitude Azimuth Time Altitude Azimuth
Cosmos 1869 4.0 00:00:28 10° N 00:04:30 52° ENE 00:07:40 15° SSE
Cosmos 1408 4.1 00:03:23 15° SE 00:05:42 27° E 00:08:51 10° NNE
Cosmos 1777 Rocket 4.5 00:01:55 10° NW 00:06:58 46° WSW 00:10:23 20° S
GENESIS II 4.3 00:03:51 14° SW 00:07:10 76° NW 00:11:05 10° NE
SL-4 R/B 2.4 00:05:32 22° SSW 00:07:20 35° SSE 00:10:41 10° E
Lacrosse 5 rocket 2.0 00:09:30 10° W 00:12:59 48° NNW 00:16:30 10° ENE
CZ-3B R/B 3.5 00:01:49 10° W 00:17:30 77° N 00:21:26 10° E
PSLV R/B 3.6 00:13:43 10° NNE 00:18:02 84° WNW 00:21:01 20° SSW
Cosmos 1953 Rocket 4.5 00:18:21 16° SSE 00:21:29 40° E 00:25:37 10° NNE
Cosmos 1626 Rocket 4.2 00:20:34 17° SW 00:23:47 47° WNW 00:28:06 10° N
Cosmos 1634 Rocket 4.2 00:20:40 10° NNW 00:26:54 66° W 00:31:49 17° S
Cosmos 2279 Rocket 4.0 00:22:25 10° N 00:28:43 89° ENE 00:34:05 15° S
Cosmos 1602 Rocket 4.0 00:27:03 18° SSW 00:30:13 55° WNW 00:34:39 10° N
Aureole 3 3.8 00:28:51 10° NNW 00:32:10 44° W 00:34:38 20° SSW
FALCON 9 DEB 2.8 00:29:32 10° WSW 00:32:41 84° S 00:35:49 10° E
Cosmos 1892 2.8 00:33:27 20° S 00:36:00 70° E 00:39:54 10° NNE
FALCON 9 DEB 3.0 00:32:42 10° W 00:36:08 89° S 00:39:32 10° E
Helios 1A 2.9 00:32:59 16° SSE 00:36:16 90° WSW 00:40:30 10° NNW
Cosmos 990 Rocket 4.0 00:31:56 10° NNW 00:37:11 89° WSW 00:42:18 10° SSE
Helios 1B rocket 4.5 00:34:17 10° NE 00:37:21 20° E 00:40:24 10° SE
Cosmos 1758 Rocket 3.6 00:34:16 19° SSW 00:37:23 73° WNW 00:41:50 10° N
Cosmos 1898 Rocket 3.6 00:35:21 10° NNW 00:40:39 82° ENE 00:45:53 10° SSE
Cosmos 1943 Rocket 2.4 00:36:14 10° NW 00:41:33 50° WSW 00:45:49 16° S
Cosmos 1937 Rocket 3.8 00:40:20 10° NNW 00:45:40 69° ENE 00:50:59 10° SE
EO 1 Del DPAF 3.6 00:46:18 10° N 00:49:56 54° WNW 00:52:33 18° SW
USA 229 DEB 4.1 00:46:21 16° S 00:51:15 48° ESE 00:57:49 10° NE
USA 229 4.1 00:46:27 16° S 00:51:22 48° ESE 00:57:55 10° NE
UNK 4.3 00:48:23 10° SSE 00:52:54 57° ENE 00:57:26 10° N
Resurs 1-4 Rocket 3.0 00:48:16 10° NNE 00:53:21 43° E 00:58:07 11° SSE
FALCON 9 DEB 2.8 00:51:42 10° W 00:54:48 87° N 00:57:55 10° E
Cosmos-2242 3.9 00:50:55 10° NNW 00:54:59 37° W 00:57:54 17° SSW
Meteor 2-2 Rocket 4.5 00:49:04 10° NNW 00:55:08 83° ENE 01:01:11 10° SSE
FALCON 9 DEB 2.8 00:54:12 10° W 00:57:21 88° N 01:00:29 10° E
Lacrosse 4 Rocket 3.1 00:56:14 10° NNW 01:00:06 36° NE 01:03:53 10° ESE
NOSS 3-1 (C) 3.4 00:56:48 15° SSW 01:01:25 73° SE 01:07:56 10° NE
Cosmos 1356 3.3 00:59:30 20° SSW 01:01:47 84° WNW 01:05:12 10° NNE
CZ-2D R/B 2.8 00:56:48 10° NNE 01:01:52 48° E 01:06:36 12° S
FALCON 9 DEB 2.8 01:00:49 10° W 01:03:57 86° N 01:07:03 10° E
Cosmos 405 Rocket 2.6 01:03:33 17° S 01:06:16 77° E 01:09:58 10° NNE
SL-16 R/B 2.5 01:02:11 13° SW 01:07:21 65° NW 01:13:01 10° NNE
ATLAS 3B R/B 4.2 01:02:08 10° W 01:08:19 37° NNW 01:14:45 10° NE
Nadezhda 4 Rocket 4.2 01:03:27 12° S 01:09:09 68° E 01:15:14 10° NNE
NOSS 2-3 (E) 3.7 01:06:52 16° SSW 01:10:11 68° SE 01:15:16 10° NE
USA 215 3.7 01:03:52 10° ENE 01:10:20 66° N 01:16:48 10° W
NOSS 3-1 (A) 3.7 01:06:18 15° SSW 01:10:41 54° SE 01:16:58 10° NE
ADEOS II 3.5 01:06:18 10° NNE 01:10:57 30° E 01:15:33 10° SSE
Cosmos 1825 2.1 01:08:39 16° S 01:11:33 84° E 01:15:21 10° NNE
Cosmos 2237 Rocket 3.7 01:08:02 10° WSW 01:13:00 31° NW 01:18:00 10° NNE
SL-16 R/B 2.5 01:11:53 10° SSE 01:18:06 81° WSW 01:24:20 10° NNW
ARGOS Delta rocket 4.3 01:13:35 10° NNE 01:19:05 75° ESE 01:24:13 12° S
USA 281 4.0 01:12:50 10° SE 01:19:12 55° NE 01:25:36 10° NNW
NOSS 8 (F) 4.2 01:17:04 17° SSW 01:19:18 64° SE 01:22:16 10° NE
Cosmos 468 Rocket 4.0 01:15:38 15° SSW 01:20:01 81° ESE 01:25:17 10° NNE
Cosmos 2369 Rocket 2.5 01:14:57 10° NW 01:20:27 48° WSW 01:25:54 10° S
MOZ.5/SAFIR/RUBIN 5/SL-8 4.3 01:17:20 14° S 01:21:12 46° W 01:25:48 10° NNW
Cosmos 2221 2.5 01:20:04 10° NNW 01:24:23 71° W 01:28:29 11° S
Cosmos 2098 Rocket 3.6 01:19:23 11° S 01:24:53 75° E 01:29:28 10° NNE
Cosmos 2263 4.4 01:21:38 10° NW 01:27:13 56° WSW 01:32:43 10° S
Cosmos 1656 Rocket 3.8 01:22:38 10° NW 01:28:16 62° WSW 01:33:51 10° SSE
Cosmos 372 Rocket 4.0 01:24:54 10° NNW 01:30:11 89° ENE 01:35:26 10° SSE
Aureole 3 Rocket 2.9 01:27:06 10° N 01:30:35 80° E 01:35:06 10° SSE
IDEFIX/ARIANE 42P 4.4 01:26:20 10° NE 01:30:42 26° E 01:35:01 10° SSE
SJ 16-02 3.3 01:29:22 10° WNW 01:31:41 14° W 01:33:58 10° SW
BREEZE-M DEB (TANK) 2.8 01:35:17 13° WSW 01:37:02 41° SSE 01:41:15 10° E
ADEOS Rocket 3.5 01:31:14 10° SSE 01:38:35 83° ENE 01:45:14 10° NNW
Meteor 1-29 4.1 01:35:57 10° NNE 01:39:12 37° E 01:42:24 10° SSE
Cosmos 1763 Rocket 3.5 01:35:27 12° SSW 01:40:05 75° WNW 01:45:16 10° NNE
Cosmos 1408 3.9 01:37:38 11° SW 01:40:36 29° WNW 01:43:53 10° N
BREEZE-M DEB (TANK) 4.4 01:37:55 10° W 01:43:34 62° SSW 02:05:24 10° ESE
NOSS 8 (H) 4.1 01:42:35 13° SW 01:45:13 67° SE 01:48:10 10° NE
X-37B 2.2 01:44:24 13° SSW 01:46:05 19° S 01:48:26 10° SE
SL-4 R/B 1.6 01:42:55 10° WSW 01:46:37 70° S 01:50:07 10° E
Cosmos 1092 Rocket 4.1 01:40:48 10° S 01:46:55 77° E 01:53:05 10° NNE
Cosmos 1606 2.8 01:43:12 10° NNW 01:47:02 62° W 01:50:48 10° S
ATLAS 5 CENTAUR R/B 3.4 01:44:18 10° SSE 01:47:16 20° ESE 01:50:28 10° ENE
Cosmos 1437 Rocket 3.7 01:44:49 10° NNW 01:48:21 32° W 01:51:35 11° SSW
NOSS 2-3 (D) 3.9 01:46:44 10° SW 01:51:01 73° NW 01:56:18 10° NE
CENTAUR R/B 4.2 01:44:10 10° NW 01:51:28 50° NNE 01:59:48 10° E
Lacrosse 5 rocket 2.1 01:49:01 10° WNW 01:52:30 47° N 01:56:02 10° E
Cosmos 1242 Rocket 3.0 01:52:01 10° NNW 01:55:26 42° W 01:58:51 10° SSW
Cosmos 2058 3.4 01:52:19 11° SSW 01:56:05 46° WNW 02:00:04 10° N
Meteor 1-28 Rocket 3.2 02:00:43 10° SSE 02:04:31 87° WSW 02:08:21 10° NNW
IRS-1D 4.0 01:59:31 10° NNE 02:04:41 62° ESE 02:09:42 10° S
USA 290 3.3 02:04:27 10° S 02:07:29 39° ESE 02:10:32 10° NE
NOSS 2-3 (C) 4.3 02:03:47 10° WSW 02:08:04 58° NW 02:13:24 10° NE
FALCON 9 DEB 2.8 02:05:16 10° W 02:08:24 82° SSW 02:11:33 10° ESE
CREW DRAGON DEMO-1 DEB 3.1 02:07:57 10° SW 02:10:13 33° SSE 02:12:30 10° E
Exosat Rocket 4.2 02:04:06 10° SW 02:10:25 55° NW 02:15:29 10° NNE
FALCON 9 DEB 3.5 02:09:38 10° W 02:12:52 41° SSW 02:16:04 10° SE
Helios 1B rocket 2.8 02:08:53 10° N 02:12:54 52° WNW 02:16:52 10° SW
Meteor 1-26 Rocket 4.5 02:08:46 10° NNW 02:14:34 82° ENE 02:20:30 10° SSE
Cosmos 1151 Rocket 3.7 02:11:02 10° N 02:15:15 56° ENE 02:19:27 10° SSE
Landsat 4 3.7 02:12:54 10° NNE 02:16:43 89° WNW 02:20:30 10° SSW
Cosmos 1437 3.4 02:15:16 10° NNW 02:17:47 30° W 02:20:17 10° SSW
SL-19 R/B 4.3 02:15:14 10° NNE 02:20:26 70° WNW 02:25:45 10° SSW
Cosmos 1943 3.5 02:18:24 10° SW 02:24:00 64° NW 02:29:39 10° NNE
Cosmos 1633 2.9 02:21:25 10° SSW 02:24:49 48° WNW 02:28:17 10° N
Cosmos 841 Rocket 3.7 02:20:16 10° SW 02:25:24 66° WNW 02:30:33 10° NNE
NPP 4.2 02:21:40 10° N 02:26:53 50° WNW 02:32:04 10° SW
